This demonstration page uses our WeatherBlox Daily Observations layout. Learn more.

36.17497, -115.13722

Hourly Observations for May 5, 2015

Temp ( °F °C ) Dew Point ( °F °C ) Humidity (%) Winds ( mph kmh ) Pressure ( in mb ) Visibility ( mi km ) Precip ( " mm )
12:53 am 00:53 Mostly Clear 68 20 43 6.1 40 40 E 9 15 29.84 1011 10 16.0934 0 0.0254
1:53 am 01:53 Clear 67 19.4 45 7.2 45 45 S 5 7 29.83 1010 10 16.0934 0 0
2:53 am 02:53 Clear 65 18.3 45 7.2 49 49 ESE 5 7 29.83 1010 10 16.0934 0 0
3:53 am 03:53 Clear 64 17.8 45 7.2 50 50 E 8 13 29.82 1010 10 16.0934 0 0
4:53 am 04:53 Cloudy 63 17.2 45 7.2 52 52 E 10 17 29.82 1010 10 16.0934 0 0
5:53 am 05:53 Mostly Cloudy 64 17.8 45 7.2 50 50 ESE 13 20 29.83 1010 10 16.0934 0 0
6:53 am 06:53 Sunny 65 18.3 47 8.3 52 52 E 6 9 29.85 1011 10 16.0934 0 0
7:53 am 07:53 Sunny 67 19.4 44 6.7 44 44 ESE 7 11 29.85 1011 10 16.0934 0 0
8:53 am 08:53 Sunny 68 20 43 6.1 40 40 ESE 8 13 29.86 1011 10 16.0934 0 0
9:53 am 09:53 Sunny 71 21.7 43 6.1 36 36 undefined N/A 29.86 1011 10 16.0934 0 0
10:53 am 10:53 Sunny 73 22.8 42 5.6 33 33 SE 8 13 29.85 1011 10 16.0934 0 0
11:53 am 11:53 Sunny 76 24.4 40 4.4 27 27 E 5 7 29.83 1010 10 16.0934 0 0
12:53 pm 12:53 Sunny 78 25.6 37 2.8 23 23 VRB 5 7 29.8 1009 10 16.0934 0 0
1:53 pm 13:53 Sunny 81 27.2 34 1.1 18 18 VRB 7 11 29.76 1008 10 16.0934 0 0
2:53 pm 14:53 Sunny 84 28.9 32 0 15 15 SSE 15 24 29.72 1006 10 16.0934 0 0
3:53 pm 15:53 Sunny 84 28.9 30 -1.1 14 14 SSE 14 22 29.68 1005 10 16.0934 0 0
4:53 pm 16:53 Sunny 86 30 28 -2.2 12 12 S 13 20 29.65 1004 10 16.0934 0 0
5:53 pm 17:53 Sunny 85 29.4 28 -2.2 13 13 SW 13 20 29.65 1004 10 16.0934 0 0
6:53 pm 18:53 Sunny 84 28.9 29 -1.7 13 13 SW 16 26 29.65 1004 10 16.0934 0 0
7:53 pm 19:53 Clear 82 27.8 31 -0.6 16 16 SW 13 20 29.67 1005 10 16.0934 0 0
8:53 pm 20:53 Clear 80 26.7 31 -0.6 17 17 SSW 8 13 29.7 1006 10 16.0934 0 0
9:53 pm 21:53 Clear 77 25 31 -0.6 18 18 S 14 22 29.72 1006 10 16.0934 0 0
10:53 pm 22:53 Clear 76 24.4 31 -0.6 19 19 SSW 15 24 29.72 1006 10 16.0934 0 0
11:53 pm 23:53 Clear 75 23.9 31 -0.6 20 20 S 10 17 29.73 1007 10 16.0934 0 0

Powered by AerisWeather